Precipitable_Water
0.66 0.67 0.67 0.67 0.65 0.64 0.64 0.64 0.66 0.66 0.68 0.72 0.74 0.73 0.78 0.90 0.72 0.67 0.68 0.81 0.91 0.86 0.83 0.99 0.98 1.07 0.89 0.64 0.54 0.62 0.67 0.72 0.58 0.52 0.45 0.45 0.39 0.36 0.30 0.33 0.35 0.32 0.38 0.41 0.42 0.43 0.42
0.62 0.64 0.64 0.64 0.63 0.63 0.64 0.61 0.60 0.62 0.63 0.64 0.72 0.70 0.75 0.81 0.84 0.67 0.65 0.73 0.84 0.92 0.92 0.97 1.00 1.05 0.78 0.49 0.70 0.74 0.73 0.64 0.58 0.53 0.45 0.46 0.42 0.43 0.37 0.35 0.33 0.37 0.38 0.40 0.42 0.42 0.46
0.54 0.56 0.58 0.59 0.61 0.63 0.63 0.61 0.60 0.58 0.60 0.60 0.65 0.65 0.69 0.76 0.84 0.72 0.62 0.64 0.84 0.92 0.96 0.96 1.07 0.96 0.71 0.60 0.77 0.73 0.78 0.60 0.67 0.52 0.40 0.50 0.50 0.39 0.40 0.35 0.42 0.39 0.31 0.37 0.40 0.43 0.44
0.52 0.50 0.53 0.54 0.59 0.60 0.61 0.62 0.61 0.55 0.56 0.57 0.62 0.60 0.62 0.69 0.77 0.83 0.61 0.65 0.82 0.88 0.93 0.98 1.09 0.90 0.60 0.83 0.77 0.73 0.77 0.59 0.64 0.63 0.54 0.53 0.55 0.43 0.41 0.44 0.40 0.34 0.35 0.26 0.37 0.41 0.47
0.47 0.52 0.50 0.50 0.53 0.55 0.58 0.59 0.60 0.55 0.51 0.52 0.57 0.56 0.56 0.62 0.69 0.77 0.72 0.72 0.84 0.95 0.92 1.05 0.95 0.76 0.54 0.77 0.60 0.72 0.71 0.53 0.51 0.55 0.55 0.55 0.53 0.43 0.42 0.33 0.30 0.33 0.24 0.27 0.32 0.41 0.39
0.49 0.49 0.47 0.46 0.49 0.49 0.52 0.54 0.56 0.57 0.54 0.49 0.50 0.55 0.51 0.56 0.63 0.75 0.83 0.78 0.89 0.98 0.94 1.00 0.91 0.64 0.66 0.52 0.58 0.68 0.71 0.60 0.47 0.44 0.46 0.47 0.44 0.36 0.34 0.31 0.19 0.21 0.22 0.27 0.28 0.36 0.37
0.47 0.47 0.47 0.47 0.47 0.48 0.48 0.51 0.54 0.54 0.52 0.50 0.46 0.51 0.56 0.51 0.56 0.73 0.88 0.74 0.58 0.64 0.76 0.58 0.57 0.58 0.49 0.62 0.72 0.63 0.67 0.52 0.45 0.40 0.30 0.42 0.34 0.25 0.27 0.31 0.31 0.29 0.25 0.25 0.32 0.38 0.36
0.44 0.45 0.45 0.45 0.44 0.45 0.45 0.46 0.48 0.51 0.52 0.51 0.47 0.48 0.56 0.55 0.49 0.69 0.84 0.67 0.58 0.71 0.48 0.68 0.64 0.62 0.63 0.66 0.50 0.58 0.67 0.45 0.38 0.29 0.33 0.34 0.28 0.34 0.36 0.37 0.34 0.33 0.28 0.26 0.32 0.37 0.37
0.43 0.45 0.45 0.44 0.43 0.43 0.44 0.44 0.45 0.48 0.49 0.51 0.51 0.50 0.52 0.55 0.47 0.57 0.69 0.76 0.87 0.73 0.45 0.52 0.65 0.57 0.56 0.57 0.50 0.49 0.58 0.46 0.36 0.30 0.31 0.25 0.29 0.41 0.36 0.34 0.33 0.32 0.30 0.29 0.27 0.33 0.36
0.44 0.44 0.43 0.42 0.42 0.41 0.41 0.42 0.42 0.45 0.48 0.49 0.55 0.53 0.56 0.48 0.40 0.50 0.55 0.88 0.92 0.76 0.33 0.37 0.48 0.54 0.54 0.57 0.49 0.60 0.57 0.47 0.39 0.30 0.31 0.28 0.35 0.36 0.37 0.33 0.34 0.28 0.36 0.34 0.31 0.27 0.21
0.44 0.44 0.42 0.41 0.40 0.39 0.39 0.39 0.42 0.42 0.46 0.47 0.58 0.58 0.50 0.49 0.38 0.40 0.56 0.86 0.92 0.65 0.19 0.40 0.46 0.65 0.57 0.49 0.53 0.53 0.61 0.47 0.34 0.33 0.33 0.26 0.30 0.32 0.33 0.33 0.38 0.33 0.40 0.37 0.35 0.31 0.28
0.43 0.42 0.41 0.40 0.40 0.38 0.38 0.37 0.37 0.40 0.41 0.46 0.58 0.57 0.42 0.44 0.43 0.50 0.64 0.82 0.69 0.33 0.19 0.34 0.46 0.45 0.47 0.49 0.50 0.59 0.55 0.52 0.47 0.37 0.35 0.33 0.40 0.39 0.37 0.41 0.43 0.42 0.39 0.38 0.37 0.33 0.23
0.40 0.41 0.41 0.42 0.39 0.39 0.38 0.36 0.34 0.36 0.38 0.46 0.55 0.56 0.48 0.50 0.39 0.58 0.70 0.61 0.32 0.24 0.34 0.34 0.37 0.44 0.45 0.44 0.46 0.52 0.51 0.44 0.36 0.30 0.29 0.34 0.36 0.41 0.44 0.38 0.43 0.41 0.34 0.26 0.24 0.23 0.19
0.41 0.41 0.41 0.42 0.40 0.39 0.39 0.36 0.34 0.32 0.35 0.45 0.53 0.58 0.56 0.58 0.59 0.63 0.63 0.41 0.22 0.29 0.30 0.46 0.47 0.45 0.38 0.43 0.44 0.49 0.49 0.44 0.47 0.41 0.33 0.29 0.26 0.37 0.42 0.37 0.34 0.36 0.33 0.24 0.17 0.17 0.20
0.41 0.41 0.42 0.41 0.39 0.39 0.37 0.36 0.33 0.31 0.34 0.41 0.53 0.47 0.43 0.48 0.55 0.62 0.41 0.23 0.23 0.30 0.39 0.40 0.42 0.36 0.39 0.43 0.43 0.44 0.45 0.45 0.48 0.48 0.35 0.31 0.29 0.41 0.42 0.42 0.40 0.35 0.31 0.36 0.27 0.28 0.22
0.42 0.42 0.43 0.41 0.39 0.38 0.36 0.35 0.32 0.30 0.31 0.40 0.35 0.39 0.40 0.62 0.59 0.51 0.34 0.24 0.27 0.36 0.41 0.43 0.34 0.40 0.32 0.37 0.39 0.42 0.42 0.48 0.49 0.53 0.54 0.45 0.32 0.41 0.41 0.45 0.44 0.37 0.39 0.29 0.29 0.19 0.18
0.44 0.42 0.43 0.41 0.38 0.37 0.35 0.34 0.31 0.27 0.25 0.36 0.33 0.23 0.42 0.59 0.54 0.36 0.19 0.25 0.32 0.38 0.40 0.36 0.36 0.35 0.40 0.37 0.40 0.39 0.41 0.45 0.49 0.51 0.54 0.50 0.42 0.38 0.46 0.38 0.36 0.37 0.34 0.33 0.31 0.27 0.20
0.45 0.43 0.43 0.41 0.38 0.37 0.35 0.33 0.31 0.27 0.23 0.25 0.24 0.12 0.40 0.48 0.23 0.26 0.21 0.26 0.31 0.34 0.37 0.38 0.41 0.39 0.38 0.41 0.38 0.39 0.38 0.43 0.49 0.51 0.44 0.50 0.43 0.33 0.36 0.46 0.47 0.43 0.37 0.37 0.29 0.25 0.28
0.44 0.45 0.42 0.42 0.39 0.38 0.36 0.33 0.31 0.27 0.26 0.20 0.13 0.15 0.38 0.41 0.15 0.17 0.23 0.23 0.26 0.25 0.29 0.32 0.31 0.35 0.39 0.37 0.34 0.40 0.42 0.46 0.46 0.45 0.47 0.49 0.39 0.29 0.31 0.39 0.45 0.41 0.43 0.41 0.40 0.38 0.29
0.50 0.45 0.44 0.43 0.40 0.40 0.36 0.34 0.31 0.27 0.24 0.19 0.11 0.08 0.18 0.30 0.29 0.21 0.17 0.16 0.17 0.26 0.26 0.30 0.32 0.33 0.34 0.32 0.38 0.35 0.39 0.46 0.51 0.48 0.52 0.53 0.41 0.34 0.26 0.30 0.36 0.34 0.40 0.44 0.42 0.33 0.31
0.49 0.47 0.46 0.44 0.42 0.41 0.37 0.35 0.32 0.27 0.22 0.16 0.12 0.10 0.13 0.08 0.17 0.18 0.18 0.17 0.14 0.14 0.20 0.22 0.22 0.28 0.30 0.26 0.31 0.33 0.38 0.39 0.45 0.48 0.48 0.44 0.33 0.37 0.37 0.37 0.36 0.35 0.36 0.40 0.39 0.40 0.34
0.49 0.48 0.47 0.45 0.44 0.42 0.39 0.37 0.35 0.30 0.22 0.14 0.10 0.09 0.12 0.09 0.10 0.08 0.09 0.10 0.11 0.13 0.15 0.14 0.14 0.18 0.21 0.24 0.28 0.28 0.34 0.36 0.37 0.42 0.41 0.43 0.32 0.36 0.33 0.36 0.36 0.34 0.36 0.38 0.40 0.39 0.39
0.50 0.49 0.46 0.45 0.43 0.43 0.40 0.39 0.37 0.36 0.25 0.16 0.19 0.20 0.14 0.09 0.08 0.06 0.07 0.08 0.09 0.11 0.11 0.13 0.13 0.13 0.12 0.15 0.23 0.29 0.34 0.34 0.39 0.38 0.36 0.36 0.33 0.31 0.26 0.33 0.33 0.28 0.32 0.36 0.37 0.39 0.39
0.50 0.48 0.47 0.46 0.43 0.42 0.40 0.40 0.37 0.39 0.33 0.24 0.21 0.18 0.10 0.05 0.07 0.07 0.09 0.09 0.08 0.09 0.09 0.10 0.12 0.10 0.14 0.22 0.23 0.25 0.27 0.31 0.31 0.33 0.41 0.33 0.32 0.31 0.25 0.27 0.20 0.28 0.34 0.36 0.36 0.38 0.39
0.50 0.49 0.46 0.45 0.42 0.44 0.41 0.41 0.37 0.37 0.40 0.28 0.25 0.18 0.13 0.06 0.09 0.09 0.10 0.10 0.10 0.11 0.11 0.11 0.13 0.16 0.20 0.17 0.12 0.11 0.12 0.16 0.23 0.28 0.32 0.37 0.32 0.26 0.23 0.22 0.25 0.26 0.30 0.32 0.33 0.32 0.37
0.48 0.47 0.46 0.44 0.43 0.43 0.41 0.41 0.39 0.37 0.38 0.31 0.27 0.27 0.19 0.11 0.10 0.13 0.11 0.12 0.10 0.10 0.10 0.12 0.18 0.21 0.19 0.15 0.12 0.08 0.08 0.11 0.14 0.22 0.28 0.31 0.34 0.28 0.24 0.20 0.18 0.25 0.29 0.33 0.35 0.28 0.36
0.47 0.46 0.45 0.43 0.41 0.43 0.41 0.41 0.39 0.37 0.37 0.36 0.29 0.30 0.22 0.14 0.16 0.16 0.12 0.11 0.15 0.13 0.12 0.14 0.15 0.16 0.20 0.14 0.11 0.10 0.08 0.13 0.11 0.15 0.20 0.20 0.24 0.23 0.23 0.21 0.22 0.25 0.30 0.33 0.24 0.22 0.32
0.47 0.45 0.44 0.42 0.40 0.40 0.41 0.39 0.40 0.38 0.35 0.37 0.30 0.31 0.24 0.18 0.18 0.19 0.18 0.14 0.15 0.15 0.10 0.15 0.15 0.16 0.16 0.13 0.13 0.13 0.11 0.12 0.11 0.15 0.19 0.20 0.20 0.20 0.22 0.20 0.17 0.25 0.24 0.21 0.22 0.23 0.24
0.47 0.46 0.44 0.41 0.38 0.39 0.40 0.38 0.39 0.36 0.37 0.39 0.27 0.32 0.30 0.21 0.18 0.23 0.22 0.23 0.21 0.21 0.17 0.18 0.18 0.19 0.21 0.17 0.16 0.16 0.13 0.13 0.11 0.09 0.17 0.16 0.20 0.21 0.23 0.23 0.27 0.28 0.25 0.26 0.26 0.24 0.24
Wind_Speed
35 35 35 34 34 33 31 29 26 23 21 20 19 17 15 13 13 13 13 14 14 11 12 13 16 18 17 17 20 16 19 26 28 26 24 21 20 18 18 18 18 18 19 15 17 16 17
34 35 35 34 33 32 31 29 26 23 21 21 19 18 15 13 12 12 12 12 11 10 11 12 15 17 15 16 18 17 18 24 26 25 24 22 20 18 16 16 18 18 16 18 17 19 21
35 35 35 35 34 32 31 29 27 24 22 20 19 18 16 13 11 11 12 12 13 12 9 11 14 15 14 18 16 15 17 22 25 24 23 22 20 18 17 16 19 18 17 18 19 20 21
34 35 35 35 34 33 31 29 28 26 23 20 19 18 16 13 12 11 10 11 11 10 9 10 13 13 14 14 16 17 18 19 23 23 22 20 20 17 16 17 17 17 17 18 19 21 23
34 34 35 35 34 34 32 30 28 27 25 21 19 18 17 14 12 10 10 9 9 7 7 8 11 12 13 13 16 17 18 19 22 21 21 20 19 18 17 17 16 19 18 18 19 19 22
33 33 34 35 34 34 33 30 28 27 26 24 19 17 16 14 11 9 9 9 7 7 6 6 10 11 12 13 15 17 18 19 20 21 19 20 18 18 17 18 20 20 18 17 19 20 19
32 33 34 34 34 34 34 32 29 28 27 25 21 17 15 14 11 7 6 6 7 8 11 9 11 12 8 12 14 17 19 19 19 20 20 20 19 22 21 18 16 16 17 18 18 19 19
32 32 33 34 34 34 34 33 31 28 27 25 22 18 15 13 10 7 6 7 7 9 10 13 13 13 13 12 13 17 21 19 20 20 19 17 24 18 19 19 16 16 17 17 18 19 20
31 32 33 33 34 34 34 34 33 29 27 24 22 19 16 12 8 7 7 7 7 8 10 10 13 15 15 15 14 19 21 18 19 20 22 21 16 20 19 19 17 17 19 20 19 19 18
31 31 32 33 34 34 34 34 34 31 27 24 21 19 17 10 6 6 7 8 9 8 8 10 12 13 16 15 15 17 21 18 18 23 20 19 18 21 20 20 19 18 19 19 20 21 21
30 31 32 33 34 34 34 35 34 32 28 24 20 18 14 7 5 5 6 8 9 8 6 7 10 12 16 17 13 17 19 17 18 19 20 20 19 20 21 22 20 18 18 17 19 17 19
30 31 32 33 34 34 34 34 34 33 30 25 20 15 11 8 6 5 6 5 6 6 9 7 7 10 14 17 15 15 18 16 17 17 18 19 18 20 21 19 22 19 15 13 16 18 21
30 31 32 33 34 34 34 34 34 33 30 25 20 16 11 9 7 6 4 4 4 8 7 8 9 10 14 15 16 18 20 20 17 15 18 18 19 18 17 16 21 20 19 15 17 20 22
30 31 32 33 34 34 34 34 33 33 30 25 20 17 13 10 10 7 5 5 6 7 9 9 8 9 13 14 17 18 22 23 23 17 16 19 18 22 20 20 21 23 24 19 19 19 20
29 30 32 32 33 34 34 34 33 32 29 25 20 17 15 12 10 8 7 7 9 8 9 10 13 11 11 14 14 16 21 25 25 26 19 18 21 18 20 20 22 23 25 24 15 14 15
29 30 31 32 33 33 34 34 34 32 30 24 20 18 16 15 10 8 9 12 11 10 11 11 10 12 16 17 15 16 17 18 26 28 23 19 17 18 21 20 22 23 23 21 22 19 19
29 30 31 32 33 34 34 35 34 33 30 24 20 18 17 15 11 9 11 13 14 14 13 13 13 14 12 14 19 19 17 17 17 23 28 25 21 16 20 23 24 21 23 23 21 24 20
29 29 31 32 33 34 34 35 35 34 30 24 21 19 18 15 13 12 13 12 14 15 15 16 15 17 17 17 15 18 22 20 16 18 23 25 21 21 19 20 22 23 24 29 25 23 22
29 29 31 32 33 34 35 35 35 35 30 24 21 20 18 16 14 14 15 15 15 15 17 17 18 18 17 18 17 17 16 18 18 19 19 22 21 20 20 22 22 25 24 24 24 21 26
29 30 31 32 33 34 35 35 35 34 30 24 22 20 19 17 15 15 17 16 15 15 16 17 18 18 18 19 20 20 19 17 16 19 20 22 22 23 26 20 21 25 27 28 26 25 25
29 30 31 32 33 34 34 35 35 35 29 24 22 20 19 19 17 17 17 17 17 17 16 17 17 18 18 18 18 21 21 21 21 21 20 22 23 24 23 21 21 22 24 28 31 30 25
29 30 31 32 33 34 34 34 34 34 29 24 22 22 21 19 18 17 16 16 17 17 18 17 19 18 19 21 22 22 20 21 21 20 21 21 20 22 23 24 23 22 23 24 24 26 25
30 30 31 32 32 33 34 34 33 33 30 24 24 23 21 20 18 17 17 18 18 19 20 19 20 21 22 22 22 24 24 22 23 22 21 21 19 19 21 22 22 25 28 26 24 24 24
30 31 31 32 32 33 33 33 33 32 30 26 25 24 23 21 20 19 20 21 22 22 23 24 24 24 23 22 21 21 22 22 22 23 23 22 19 18 18 19 23 23 22 24 23 22 23
30 31 31 31 32 33 33 33 33 32 30 28 27 26 25 25 23 23 22 24 26 26 26 27 26 25 24 24 22 22 21 22 22 21 23 22 20 18 20 21 19 21 23 22 23 22 23
30 31 31 32 32 33 33 34 34 33 32 30 29 29 27 27 24 24 25 26 27 28 28 27 26 26 24 23 22 22 21 20 20 19 19 21 20 18 17 19 21 19 20 20 20 21 23
30 31 31 32 33 34 34 35 35 34 34 32 31 31 29 28 26 26 27 27 27 28 28 29 27 26 25 24 23 22 22 20 20 20 20 17 18 18 17 15 17 18 18 18 17 18 19
30 31 32 33 33 34 35 36 35 36 35 33 32 31 30 29 29 27 28 28 28 28 26 24 23 22 22 23 22 21 20 20 18 19 18 18 18 18 16 15 16 14 17 17 14 15 17
31 32 33 33 34 35 36 36 37 36 35 34 32 32 30 29 29 28 28 27 22 19 18 16 16 15 16 18 19 17 18 16 18 19 17 18 18 17 17 13 11 12 14 14 15 16 16
Wind_Direction
353 352 352 351 350 349 349 348 346 343 340 338 334 328 312 304 291 280 271 264 267 281 258 246 227 215 219 222 222 221 224 211 208 208 210 212 213 216 216 216 215 217 215 212 204 199 203
355 355 355 353 352 352 350 350 347 343 341 339 337 332 323 304 296 283 274 264 266 278 255 244 223 212 221 223 221 227 219 205 206 206 209 210 214 216 215 216 217 215 200 202 208 205 207
357 356 356 355 354 353 352 351 349 345 339 338 338 336 328 314 296 289 276 263 264 272 267 234 216 219 224 224 218 223 210 204 203 205 206 211 211 213 212 211 207 204 203 205 211 210 208
357 357 357 356 356 354 353 351 350 348 341 335 334 336 332 320 302 286 280 269 264 267 250 228 213 222 229 223 221 212 206 202 200 203 205 208 209 211 216 204 211 213 213 213 215 215 211
357 357 358 358 356 356 355 352 351 349 346 337 330 331 333 325 309 289 276 268 260 250 235 223 216 221 230 225 213 207 203 199 197 201 205 207 209 214 213 210 216 220 217 214 214 220 213
356 357 358 358 358 357 356 353 351 350 349 343 332 325 327 327 316 290 274 259 240 227 215 237 224 225 230 219 210 203 202 195 198 199 204 208 213 215 218 216 219 221 218 221 215 219 215
357 358 358 358 359 358 357 355 352 350 349 346 339 327 320 322 316 295 260 232 236 240 237 249 223 220 221 217 206 205 201 199 201 202 208 212 216 218 215 220 220 218 216 214 218 218 216
357 358 358 359 359 358 358 357 353 350 348 347 345 336 324 315 309 293 252 243 238 244 254 240 235 231 227 218 211 206 200 204 204 210 209 214 223 218 213 215 217 217 211 219 219 219 219
359 358 358 359 359 359 359 358 356 351 349 347 347 342 332 314 294 283 255 244 246 258 251 251 240 230 224 214 218 210 204 209 212 211 214 217 230 212 214 216 215 223 217 218 219 216 224
359 359 359 359 359 358 358 358 358 355 351 348 348 347 339 328 298 278 261 249 257 266 257 248 239 235 218 215 224 212 208 211 216 215 216 228 223 210 216 221 220 223 223 214 208 215 226
359 359 359 359 358 358 357 358 358 357 354 350 346 349 351 348 317 278 274 259 257 250 262 239 235 229 219 214 217 216 210 215 213 215 213 223 216 215 218 222 220 228 214 215 218 223 224
358 358 358 358 357 357 357 357 357 357 357 354 350 347 351 344 332 300 283 259 254 254 251 241 237 225 216 219 222 213 213 218 216 216 223 222 223 218 224 223 218 205 211 219 225 227 236
355 355 356 356 355 355 355 355 356 356 356 356 356 351 342 332 318 308 269 255 276 248 271 247 243 231 224 222 223 222 218 220 217 216 220 222 223 224 219 217 209 216 212 225 231 232 238
351 353 353 354 354 354 354 353 353 354 355 354 354 355 346 328 310 295 265 280 266 266 259 259 257 242 230 227 229 225 219 227 227 225 222 219 227 219 221 219 218 221 215 222 230 234 235
348 350 351 352 352 353 353 353 352 352 352 351 349 348 347 337 314 283 267 281 271 274 268 268 253 237 242 236 231 230 233 231 227 224 228 225 231 227 225 222 213 224 225 224 232 245 238
344 346 347 349 350 350 351 351 349 348 347 346 345 342 340 337 323 297 274 273 271 274 268 265 262 259 242 237 235 234 231 239 232 229 226 233 232 230 223 223 227 225 220 223 229 230 240
340 341 344 345 346 347 347 347 346 345 343 340 339 338 335 331 321 304 281 274 275 272 271 264 257 257 256 255 238 237 241 246 239 226 223 224 228 235 226 226 225 226 224 229 233 234 240
336 337 339 341 342 343 344 344 344 343 339 337 333 332 328 326 318 307 288 280 280 273 268 265 262 259 254 249 254 246 240 243 247 232 223 222 228 231 231 230 231 232 231 225 232 233 241
333 335 337 338 339 340 341 341 341 341 339 332 328 323 321 318 312 307 300 293 285 281 270 263 262 257 255 253 255 245 245 245 243 238 229 227 231 229 237 238 234 232 229 232 233 240 236
332 333 335 336 337 338 339 339 339 339 336 331 327 324 320 315 309 303 299 291 288 285 278 270 266 263 259 256 250 251 246 245 242 239 239 234 233 236 237 237 233 231 231 232 232 238 240
330 331 333 335 336 338 338 339 339 339 336 331 330 324 319 314 308 301 295 291 286 285 276 276 270 262 256 260 258 251 250 250 244 243 237 235 243 237 238 238 238 238 234 229 231 235 239
327 329 331 333 335 336 338 339 339 340 337 333 328 326 322 313 306 300 294 290 291 288 281 279 272 275 266 257 255 257 254 249 248 241 238 240 244 241 241 238 238 240 241 233 238 238 241
325 327 329 331 333 335 336 338 338 340 340 333 329 325 322 315 311 302 293 290 287 289 281 277 276 275 269 266 265 259 255 251 246 243 239 238 238 238 243 237 236 246 237 236 238 240 238
322 325 327 329 331 333 334 335 336 337 337 332 328 324 322 314 310 303 298 292 288 285 280 280 277 271 271 266 262 261 256 252 249 243 243 240 239 241 239 235 238 244 244 242 237 241 242
320 323 325 327 329 330 332 333 333 334 332 330 326 323 320 313 309 303 301 295 292 288 282 278 275 271 269 266 262 260 256 253 247 246 241 238 237 238 236 240 248 245 239 234 234 240 239
318 321 323 325 326 328 329 330 330 330 330 326 324 321 317 314 309 306 302 298 295 291 287 278 275 270 261 259 255 249 249 248 245 240 240 236 235 235 237 237 237 242 239 240 239 244 228
317 319 321 323 324 326 327 327 327 327 326 323 320 319 316 313 310 307 303 300 297 292 285 281 277 268 257 253 249 246 248 246 239 233 231 231 232 231 233 241 244 242 233 232 232 240 213
315 318 319 321 322 323 325 326 325 325 324 323 320 319 316 313 311 308 305 302 300 295 288 283 276 261 252 246 243 242 240 239 237 236 233 228 226 228 231 240 243 234 226 230 229 208 196
314 316 318 320 321 322 323 324 324 324 323 321 319 318 317 315 313 311 308 306 303 298 294 285 272 263 246 240 238 235 236 236 230 232 234 231 230 226 231 231 232 224 224 221 205 190 191